QPF
0.00 0.01 0.01 0.01 0.01 0.02 0.02 0.02 0.02 0.02 0.02 0.01 0.01 0.01 0.00 0.01 0.01 0.01 0.01 0.01 0.02 0.02 0.02 0.02 0.02 0.03 0.04 0.04 0.05 0.04 0.03 0.03 0.05 0.08 0.10 0.09 0.08 0.08 0.10 0.10 0.10 0.10 0.08 0.08
0.00 0.00 0.00 0.00 0.00 0.01 0.01 0.01 0.01 0.01 0.01 0.02 0.01 0.01 0.01 0.01 0.01 0.01 0.01 0.02 0.02 0.02 0.02 0.02 0.02 0.02 0.03 0.04 0.06 0.06 0.04 0.04 0.05 0.05 0.07 0.08 0.06 0.05 0.06 0.10 0.11 0.11 0.10 0.09
0.00 0.00 0.00 0.00 0.00 0.01 0.01 0.01 0.01 0.01 0.01 0.01 0.01 0.01 0.01 0.01 0.01 0.01 0.01 0.02 0.02 0.02 0.02 0.02 0.02 0.02 0.02 0.03 0.05 0.08 0.07 0.05 0.04 0.05 0.05 0.05 0.06 0.05 0.04 0.06 0.10 0.12 0.11 0.10
0.00 0.00 0.00 0.00 0.00 0.00 0.00 0.01 0.01 0.01 0.01 0.01 0.01 0.01 0.00 0.01 0.01 0.01 0.01 0.02 0.02 0.02 0.02 0.02 0.02 0.02 0.02 0.02 0.03 0.06 0.08 0.07 0.05 0.05 0.05 0.03 0.04 0.06 0.04 0.04 0.05 0.09 0.12 0.11
0.00 0.00 0.00 0.00 0.00 0.00 0.00 0.00 0.01 0.01 0.01 0.01 0.00 0.00 0.00 0.00 0.01 0.01 0.01 0.02 0.02 0.02 0.02 0.02 0.03 0.03 0.02 0.02 0.02 0.02 0.05 0.07 0.07 0.06 0.06 0.05 0.03 0.04 0.04 0.04 0.05 0.07 0.10 0.12
0.00 0.00 0.00 0.00 0.00 0.00 0.00 0.00 0.01 0.01 0.01 0.01 0.00 0.00 0.00 0.00 0.00 0.01 0.01 0.01 0.02 0.02 0.02 0.02 0.02 0.02 0.02 0.02 0.02 0.01 0.02 0.04 0.07 0.08 0.06 0.06 0.05 0.03 0.04 0.04 0.05 0.07 0.08 0.11
0.00 0.00 0.00 0.00 0.00 0.00 0.00 0.00 0.01 0.01 0.01 0.01 0.00 0.00 0.00 0.00 0.00 0.00 0.01 0.01 0.02 0.02 0.02 0.02 0.02 0.02 0.02 0.02 0.02 0.02 0.02 0.02 0.03 0.05 0.06 0.05 0.06 0.05 0.03 0.04 0.04 0.06 0.08 0.09
0.00 0.00 0.00 0.00 0.00 0.00 0.00 0.00 0.01 0.01 0.00 0.00 0.00 0.00 0.00 0.00 0.01 0.01 0.01 0.01 0.01 0.01 0.02 0.02 0.02 0.02 0.02 0.02 0.01 0.01 0.02 0.02 0.02 0.02 0.03 0.04 0.04 0.05 0.04 0.04 0.04 0.05 0.06 0.07
0.01 0.01 0.00 0.00 0.00 0.00 0.00 0.00 0.00 0.01 0.01 0.00 0.00 0.00 0.00 0.00 0.01 0.01 0.01 0.01 0.01 0.01 0.01 0.01 0.01 0.01 0.02 0.02 0.02 0.02 0.02 0.02 0.02 0.02 0.02 0.02 0.03 0.03 0.04 0.04 0.03 0.04 0.04 0.06
0.01 0.01 0.00 0.00 0.00 0.00 0.00 0.01 0.01 0.01 0.01 0.01 0.00 0.00 0.00 0.00 0.01 0.01 0.00 0.01 0.01 0.01 0.01 0.01 0.01 0.01 0.01 0.01 0.01 0.01 0.01 0.02 0.03 0.03 0.04 0.03 0.03 0.02 0.02 0.03 0.03 0.03 0.03 0.04
0.01 0.01 0.01 0.00 0.00 0.00 0.01 0.01 0.02 0.02 0.02 0.01 0.01 0.00 0.01 0.01 0.01 0.01 0.01 0.01 0.01 0.01 0.01 0.01 0.01 0.01 0.01 0.00 0.01 0.01 0.01 0.02 0.02 0.03 0.03 0.04 0.04 0.04 0.04 0.03 0.02 0.03 0.03 0.04
0.01 0.02 0.01 0.01 0.00 0.00 0.01 0.01 0.01 0.02 0.02 0.02 0.01 0.01 0.00 0.01 0.01 0.01 0.01 0.01 0.01 0.01 0.01 0.01 0.01 0.01 0.00 0.00 0.00 0.00 0.01 0.01 0.02 0.02 0.02 0.03 0.03 0.04 0.05 0.06 0.05 0.03 0.03 0.05
0.01 0.03 0.02 0.01 0.01 0.01 0.00 0.00 0.01 0.01 0.02 0.01 0.01 0.01 0.01 0.00 0.00 0.01 0.01 0.01 0.01 0.01 0.01 0.01 0.01 0.01 0.00 0.00 0.00 0.00 0.01 0.01 0.02 0.02 0.02 0.02 0.02 0.03 0.03 0.04 0.06 0.05 0.04 0.04
0.03 0.03 0.02 0.01 0.00 0.01 0.01 0.00 0.00 0.01 0.02 0.01 0.01 0.01 0.00 0.01 0.01 0.01 0.01 0.01 0.01 0.01 0.01 0.01 0.01 0.01 0.01 0.00 0.00 0.00 0.00 0.01 0.01 0.02 0.02 0.02 0.02 0.02 0.02 0.03 0.04 0.06 0.05 0.04
0.03 0.03 0.01 0.00 0.00 0.00 0.01 0.01 0.01 0.01 0.01 0.01 0.01 0.01 0.01 0.01 0.01 0.01 0.01 0.01 0.00 0.00 0.00 0.01 0.01 0.00 0.00 0.00 0.00 0.00 0.00 0.00 0.01 0.01 0.02 0.02 0.02 0.02 0.02 0.02 0.03 0.04 0.05 0.04
0.02 0.03 0.02 0.01 0.01 0.00 0.01 0.01 0.00 0.00 0.01 0.01 0.01 0.01 0.00 0.00 0.01 0.00 0.00 0.00 0.00 0.00 0.00 0.00 0.00 0.00 0.00 0.00 0.00 0.00 0.00 0.00 0.00 0.01 0.01 0.02 0.02 0.02 0.02 0.02 0.02 0.03 0.04 0.03
0.02 0.03 0.03 0.02 0.01 0.01 0.01 0.01 0.00 0.00 0.00 0.01 0.01 0.01 0.00 0.00 0.00 0.00 0.00 0.00 0.00 0.00 0.00 0.00 0.00 0.01 0.01 0.01 0.01 0.01 0.01 0.00 0.01 0.01 0.01 0.01 0.01 0.01 0.01 0.01 0.02 0.02 0.03 0.03
0.02 0.03 0.05 0.04 0.02 0.02 0.01 0.00 0.00 0.00 0.00 0.00 0.00 0.00 0.00 0.00 0.00 0.00 0.00 0.01 0.01 0.01 0.01 0.01 0.01 0.01 0.01 0.01 0.01 0.01 0.01 0.01 0.01 0.01 0.01 0.01 0.01 0.01 0.01 0.01 0.01 0.01 0.02 0.02
0.01 0.03 0.06 0.05 0.04 0.02 0.00 0.00 0.00 0.01 0.00 0.01 0.01 0.01 0.01 0.01 0.00 0.00 0.00 0.00 0.01 0.01 0.01 0.01 0.01 0.01 0.01 0.01 0.01 0.01 0.01 0.01 0.01 0.01 0.01 0.02 0.02 0.01 0.01 0.01 0.01 0.01 0.01 0.02
0.01 0.03 0.06 0.06 0.05 0.02 0.01 0.01 0.01 0.01 0.01 0.01 0.01 0.01 0.01 0.01 0.01 0.00 0.00 0.00 0.00 0.00 0.01 0.01 0.01 0.02 0.02 0.02 0.02 0.01 0.01 0.01 0.01 0.02 0.02 0.02 0.02 0.02 0.02 0.02 0.01 0.01 0.01 0.01
0.02 0.04 0.05 0.05 0.05 0.03 0.01 0.01 0.01 0.02 0.02 0.01 0.01 0.01 0.01 0.01 0.01 0.00 0.00 0.00 0.00 0.00 0.00 0.01 0.01 0.01 0.02 0.02 0.02 0.01 0.01 0.01 0.02 0.02 0.02 0.02 0.02 0.02 0.02 0.02 0.02 0.02 0.02 0.02
0.01 0.02 0.03 0.04 0.06 0.03 0.01 0.01 0.01 0.01 0.01 0.01 0.00 0.00 0.01 0.01 0.00 0.00 0.00 0.00 0.00 0.00 0.00 0.01 0.01 0.01 0.01 0.01 0.02 0.02 0.02 0.01 0.01 0.01 0.02 0.02 0.02 0.03 0.03 0.03 0.02 0.03 0.03 0.03
0.01 0.01 0.01 0.02 0.02 0.01 0.00 0.01 0.01 0.01 0.01 0.01 0.01 0.01 0.01 0.01 0.01 0.00 0.00 0.00 0.01 0.01 0.01 0.01 0.01 0.01 0.01 0.01 0.01 0.02 0.02 0.02 0.01 0.01 0.01 0.02 0.02 0.02 0.04 0.04 0.03 0.03 0.04 0.03
0.01 0.01 0.01 0.01 0.01 0.01 0.01 0.01 0.01 0.01 0.02 0.01 0.01 0.01 0.01 0.01 0.01 0.01 0.01 0.01 0.01 0.01 0.01 0.01 0.01 0.01 0.01 0.01 0.01 0.01 0.01 0.01 0.01 0.02 0.02 0.02 0.02 0.03 0.03 0.04 0.04 0.03 0.04 0.03
0.02 0.02 0.02 0.02 0.01 0.02 0.02 0.02 0.02 0.02 0.02 0.02 0.01 0.01 0.01 0.01 0.01 0.01 0.01 0.01 0.01 0.01 0.01 0.01 0.01 0.01 0.01 0.01 0.01 0.01 0.01 0.01 0.01 0.02 0.02 0.03 0.03 0.03 0.04 0.05 0.05 0.04 0.05 0.04
0.02 0.02 0.02 0.02 0.01 0.01 0.01 0.01 0.02 0.02 0.02 0.01 0.01 0.01 0.01 0.01 0.01 0.01 0.01 0.01 0.01 0.01 0.01 0.01 0.01 0.01 0.01 0.01 0.01 0.01 0.01 0.02 0.02 0.02 0.02 0.03 0.03 0.04 0.04 0.04 0.05 0.04 0.04 0.05
MSLP
1028.05 1028.14 1028.34 1028.59 1028.80 1028.90 1028.80 1028.47 1027.90 1027.16 1026.33 1025.53 1024.85 1024.40 1024.22 1024.32 1024.65 1025.13 1025.66 1026.14 1026.49 1026.66 1026.61 1026.38 1025.98 1025.46 1024.85 1024.17 1023.43 1022.62 1021.73 1020.75 1019.70 1018.60 1017.50 1016.45 1015.51 1014.74 1014.17 1013.82 1013.70 1013.79 1014.05 1014.46
1028.85 1029.01 1029.25 1029.50 1029.70 1029.75 1029.59 1029.19 1028.55 1027.75 1026.86 1026.02 1025.32 1024.86 1024.68 1024.80 1025.15 1025.65 1026.19 1026.68 1027.03 1027.18 1027.12 1026.85 1026.43 1025.89 1025.28 1024.62 1023.93 1023.20 1022.42 1021.55 1020.62 1019.61 1018.56 1017.51 1016.51 1015.62 1014.87 1014.30 1013.93 1013.77 1013.79 1013.99
1029.63 1029.83 1030.09 1030.34 1030.51 1030.53 1030.32 1029.86 1029.17 1028.31 1027.38 1026.50 1025.77 1025.29 1025.10 1025.21 1025.57 1026.09 1026.66 1027.17 1027.55 1027.72 1027.66 1027.40 1026.96 1026.41 1025.79 1025.15 1024.49 1023.83 1023.13 1022.39 1021.58 1020.69 1019.73 1018.74 1017.73 1016.77 1015.89 1015.14 1014.54 1014.12 1013.88 1013.83
1030.37 1030.59 1030.85 1031.09 1031.25 1031.24 1031.00 1030.51 1029.79 1028.90 1027.93 1027.01 1026.23 1025.71 1025.48 1025.57 1025.92 1026.45 1027.06 1027.62 1028.05 1028.28 1028.27 1028.04 1027.62 1027.07 1026.45 1025.80 1025.16 1024.53 1023.90 1023.25 1022.55 1021.78 1020.94 1020.04 1019.08 1018.10 1017.15 1016.27 1015.48 1014.84 1014.35 1014.04
1031.05 1031.26 1031.51 1031.75 1031.89 1031.88 1031.64 1031.15 1030.42 1029.51 1028.52 1027.54 1026.71 1026.12 1025.82 1025.86 1026.19 1026.72 1027.35 1027.98 1028.50 1028.82 1028.90 1028.74 1028.37 1027.84 1027.22 1026.56 1025.91 1025.28 1024.68 1024.09 1023.48 1022.83 1022.10 1021.30 1020.42 1019.49 1018.53 1017.57 1016.66 1015.84 1015.14 1014.59
1031.62 1031.81 1032.04 1032.27 1032.42 1032.43 1032.22 1031.76 1031.05 1030.14 1029.12 1028.09 1027.19 1026.50 1026.12 1026.07 1026.34 1026.86 1027.51 1028.21 1028.82 1029.25 1029.46 1029.40 1029.11 1028.63 1028.03 1027.36 1026.68 1026.03 1025.43 1024.86 1024.30 1023.73 1023.11 1022.42 1021.64 1020.78 1019.86 1018.90 1017.93 1017.00 1016.15 1015.41
1032.04 1032.18 1032.39 1032.62 1032.79 1032.84 1032.68 1032.28 1031.61 1030.72 1029.69 1028.62 1027.63 1026.84 1026.34 1026.19 1026.37 1026.84 1027.50 1028.25 1028.95 1029.51 1029.85 1029.92 1029.74 1029.33 1028.75 1028.08 1027.38 1026.70 1026.06 1025.48 1024.95 1024.42 1023.88 1023.29 1022.62 1021.86 1021.01 1020.09 1019.13 1018.16 1017.22 1016.36
1032.25 1032.34 1032.52 1032.75 1032.96 1033.06 1032.98 1032.66 1032.06 1031.21 1030.18 1029.08 1028.02 1027.13 1026.50 1026.22 1026.30 1026.70 1027.34 1028.11 1028.89 1029.55 1030.02 1030.22 1030.15 1029.82 1029.30 1028.64 1027.92 1027.20 1026.53 1025.92 1025.38 1024.88 1024.38 1023.86 1023.29 1022.63 1021.87 1021.03 1020.13 1019.18 1018.23 1017.30
1032.23 1032.27 1032.43 1032.66 1032.90 1033.07 1033.07 1032.83 1032.32 1031.54 1030.55 1029.44 1028.33 1027.35 1026.61 1026.21 1026.18 1026.48 1027.07 1027.83 1028.65 1029.39 1029.96 1030.28 1030.31 1030.07 1029.61 1028.98 1028.25 1027.51 1026.80 1026.16 1025.60 1025.09 1024.62 1024.15 1023.64 1023.06 1022.40 1021.65 1020.83 1019.95 1019.04 1018.13
1032.03 1032.02 1032.14 1032.38 1032.65 1032.87 1032.95 1032.81 1032.39 1031.69 1030.76 1029.67 1028.55 1027.53 1026.71 1026.22 1026.07 1026.29 1026.80 1027.52 1028.33 1029.10 1029.73 1030.12 1030.24 1030.08 1029.68 1029.09 1028.38 1027.64 1026.91 1026.24 1025.65 1025.13 1024.66 1024.20 1023.72 1023.20 1022.61 1021.94 1021.20 1020.41 1019.58 1018.73
1031.72 1031.66 1031.76 1031.99 1032.27 1032.52 1032.66 1032.59 1032.26 1031.66 1030.81 1029.79 1028.71 1027.69 1026.85 1026.30 1026.08 1026.21 1026.63 1027.28 1028.04 1028.80 1029.43 1029.85 1030.02 1029.92 1029.57 1029.03 1028.36 1027.63 1026.91 1026.23 1025.61 1025.07 1024.57 1024.09 1023.61 1023.10 1022.55 1021.94 1021.27 1020.57 1019.83 1019.08
1031.44 1031.36 1031.42 1031.62 1031.88 1032.13 1032.29 1032.26 1032.00 1031.49 1030.74 1029.82 1028.83 1027.88 1027.07 1026.52 1026.26 1026.32 1026.67 1027.23 1027.90 1028.59 1029.18 1029.58 1029.75 1029.68 1029.37 1028.88 1028.26 1027.56 1026.86 1026.19 1025.56 1024.99 1024.46 1023.94 1023.43 1022.89 1022.33 1021.73 1021.11 1020.47 1019.83 1019.18
1031.32 1031.23 1031.26 1031.40 1031.60 1031.80 1031.93 1031.90 1031.68 1031.23 1030.59 1029.80 1028.94 1028.10 1027.39 1026.89 1026.64 1026.67 1026.94 1027.41 1027.98 1028.56 1029.06 1029.40 1029.54 1029.46 1029.18 1028.72 1028.15 1027.50 1026.83 1026.18 1025.55 1024.95 1024.38 1023.81 1023.23 1022.64 1022.04 1021.42 1020.81 1020.21 1019.63 1019.07
1031.47 1031.37 1031.36 1031.42 1031.52 1031.62 1031.66 1031.58 1031.35 1030.96 1030.41 1029.75 1029.05 1028.37 1027.79 1027.38 1027.19 1027.22 1027.44 1027.82 1028.28 1028.73 1029.12 1029.36 1029.44 1029.32 1029.04 1028.60 1028.07 1027.46 1026.84 1026.20 1025.58 1024.96 1024.34 1023.71 1023.07 1022.40 1021.73 1021.07 1020.43 1019.84 1019.29 1018.80
1031.91 1031.82 1031.74 1031.70 1031.66 1031.61 1031.51 1031.34 1031.06 1030.69 1030.22 1029.69 1029.15 1028.64 1028.23 1027.95 1027.84 1027.90 1028.10 1028.40 1028.74 1029.07 1029.33 1029.46 1029.44 1029.27 1028.96 1028.53 1028.01 1027.45 1026.85 1026.24 1025.62 1024.98 1024.33 1023.64 1022.92 1022.18 1021.43 1020.71 1020.03 1019.41 1018.88 1018.42
1032.58 1032.48 1032.33 1032.16 1031.95 1031.73 1031.46 1031.16 1030.82 1030.43 1030.02 1029.61 1029.22 1028.89 1028.65 1028.52 1028.51 1028.61 1028.80 1029.04 1029.28 1029.49 1029.61 1029.62 1029.50 1029.26 1028.90 1028.46 1027.95 1027.40 1026.82 1026.22 1025.60 1024.95 1024.26 1023.52 1022.74 1021.94 1021.12 1020.34 1019.61 1018.96 1018.41 1017.97
1033.32 1033.19 1032.96 1032.65 1032.28 1031.87 1031.44 1031.01 1030.58 1030.18 1029.81 1029.50 1029.25 1029.09 1029.00 1029.01 1029.10 1029.25 1029.43 1029.62 1029.78 1029.88 1029.88 1029.77 1029.55 1029.23 1028.81 1028.33 1027.81 1027.25 1026.66 1026.06 1025.43 1024.76 1024.05 1023.28 1022.46 1021.61 1020.75 1019.92 1019.15 1018.47 1017.90 1017.44
1033.91 1033.75 1033.43 1033.00 1032.48 1031.92 1031.34 1030.80 1030.31 1029.90 1029.58 1029.36 1029.23 1029.20 1029.25 1029.37 1029.54 1029.73 1029.91 1030.05 1030.14 1030.13 1030.03 1029.82 1029.50 1029.10 1028.62 1028.08 1027.51 1026.92 1026.31 1025.69 1025.03 1024.34 1023.61 1022.82 1021.99 1021.13 1020.26 1019.41 1018.63 1017.92 1017.33 1016.84
1034.15 1033.94 1033.55 1033.02 1032.40 1031.73 1031.08 1030.48 1029.97 1029.58 1029.31 1029.18 1029.16 1029.23 1029.39 1029.59 1029.81 1030.01 1030.17 1030.27 1030.28 1030.20 1030.00 1029.70 1029.30 1028.81 1028.26 1027.66 1027.03 1026.38 1025.72 1025.05 1024.36 1023.64 1022.89 1022.10 1021.28 1020.43 1019.58 1018.76 1017.98 1017.27 1016.66 1016.14
1033.92 1033.66 1033.21 1032.63 1031.97 1031.27 1030.61 1030.02 1029.55 1029.22 1029.04 1028.99 1029.06 1029.22 1029.44 1029.68 1029.91 1030.10 1030.23 1030.27 1030.21 1030.05 1029.77 1029.39 1028.90 1028.34 1027.71 1027.04 1026.33 1025.61 1024.88 1024.14 1023.40 1022.65 1021.89 1021.10 1020.31 1019.50 1018.69 1017.91 1017.16 1016.47 1015.86 1015.33
1033.21 1032.90 1032.43 1031.85 1031.21 1030.56 1029.96 1029.46 1029.09 1028.86 1028.78 1028.83 1028.98 1029.19 1029.44 1029.69 1029.90 1030.05 1030.11 1030.09 1029.95 1029.71 1029.35 1028.89 1028.34 1027.70 1026.99 1026.23 1025.44 1024.63 1023.81 1022.99 1022.19 1021.40 1020.62 1019.84 1019.07 1018.31 1017.57 1016.84 1016.14 1015.49 1014.89 1014.35
1032.12 1031.78 1031.32 1030.79 1030.23 1029.70 1029.23 1028.88 1028.65 1028.56 1028.60 1028.74 1028.95 1029.19 1029.44 1029.66 1029.82 1029.90 1029.89 1029.77 1029.55 1029.23 1028.80 1028.26 1027.63 1026.92 1026.13 1025.28 1024.39 1023.48 1022.56 1021.66 1020.78 1019.94 1019.13 1018.36 1017.62 1016.90 1016.20 1015.53 1014.89 1014.27 1013.70 1013.16
1030.85 1030.50 1030.09 1029.64 1029.21 1028.84 1028.54 1028.37 1028.31 1028.36 1028.52 1028.74 1028.99 1029.25 1029.47 1029.63 1029.71 1029.70 1029.60 1029.39 1029.08 1028.67 1028.16 1027.54 1026.84 1026.04 1025.16 1024.22 1023.23 1022.22 1021.20 1020.21 1019.25 1018.35 1017.50 1016.71 1015.98 1015.29 1014.63 1014.00 1013.39 1012.81 1012.25 1011.73
1029.62 1029.28 1028.94 1028.61 1028.33 1028.12 1028.01 1028.01 1028.11 1028.30 1028.55 1028.83 1029.11 1029.35 1029.53 1029.62 1029.61 1029.50 1029.30 1028.99 1028.58 1028.08 1027.48 1026.79 1026.00 1025.12 1024.15 1023.12 1022.03 1020.91 1019.80 1018.71 1017.67 1016.70 1015.80 1014.98 1014.23 1013.54 1012.88 1012.26 1011.66 1011.08 1010.53 1010.01
1028.62 1028.32 1028.05 1027.84 1027.70 1027.66 1027.71 1027.86 1028.09 1028.37 1028.69 1029.00 1029.27 1029.47 1029.59 1029.60 1029.51 1029.30 1029.00 1028.59 1028.10 1027.50 1026.82 1026.04 1025.16 1024.19 1023.14 1022.01 1020.82 1019.62 1018.41 1017.24 1016.12 1015.08 1014.12 1013.25 1012.45 1011.72 1011.03 1010.38 1009.74 1009.14 1008.56 1008.02
1027.96 1027.71 1027.53 1027.42 1027.40 1027.48 1027.64 1027.89 1028.19 1028.53 1028.86 1029.17 1029.41 1029.56 1029.62 1029.55 1029.38 1029.10 1028.71 1028.22 1027.64 1026.96 1026.19 1025.33 1024.36 1023.30 1022.15 1020.94 1019.67 1018.38 1017.09 1015.85 1014.66 1013.55 1012.53 1011.59 1010.72 1009.92 1009.16 1008.43 1007.72 1007.04 1006.40 1005.82
Thickness
5527 5528 5523 5517 5513 5513 5512 5513 5515 5511 5499 5499 5506 5509 5510 5506 5503 5504 5505 5504 5503 5502 5501 5501 5502 5504 5506 5509 5512 5515 5519 5522 5525 5529 5532 5535 5538 5540 5542 5544 5547 5551 5554 5557
5521 5513 5504 5500 5499 5499 5501 5502 5503 5498 5487 5487 5492 5499 5503 5499 5496 5495 5495 5495 5493 5491 5490 5490 5490 5492 5495 5497 5500 5503 5507 5510 5514 5517 5521 5524 5526 5528 5531 5533 5536 5539 5543 5546
5509 5497 5490 5490 5488 5488 5489 5488 5486 5482 5477 5474 5478 5502 5498 5491 5484 5482 5480 5479 5477 5477 5477 5477 5477 5480 5482 5484 5487 5490 5495 5498 5502 5506 5509 5512 5514 5517 5520 5522 5525 5528 5531 5535
5491 5482 5480 5481 5478 5475 5481 5472 5466 5464 5468 5478 5467 5491 5497 5485 5478 5472 5469 5466 5464 5463 5462 5463 5464 5467 5469 5471 5473 5476 5481 5485 5490 5494 5498 5501 5505 5507 5509 5511 5514 5516 5519 5522
5480 5470 5469 5469 5465 5460 5461 5452 5451 5451 5454 5457 5457 5458 5490 5471 5470 5466 5460 5456 5452 5450 5449 5449 5450 5453 5455 5458 5461 5463 5467 5472 5476 5481 5485 5488 5492 5494 5496 5498 5501 5505 5507 5509
5466 5457 5455 5454 5448 5444 5440 5441 5439 5437 5443 5448 5450 5450 5478 5469 5461 5459 5451 5445 5440 5437 5436 5436 5437 5439 5441 5444 5447 5450 5454 5458 5462 5466 5471 5475 5478 5480 5483 5486 5489 5493 5495 5496
5460 5453 5444 5440 5441 5435 5432 5438 5447 5449 5448 5456 5431 5433 5457 5455 5446 5442 5437 5433 5428 5425 5425 5424 5426 5427 5429 5431 5434 5437 5441 5445 5448 5452 5456 5461 5464 5467 5471 5473 5476 5480 5482 5484
5459 5457 5439 5430 5430 5427 5422 5425 5432 5439 5448 5452 5421 5430 5449 5433 5427 5422 5419 5418 5415 5413 5413 5412 5413 5414 5416 5418 5421 5424 5428 5432 5435 5439 5443 5447 5450 5453 5457 5459 5462 5467 5470 5472
5451 5447 5424 5418 5414 5416 5414 5414 5407 5409 5400 5408 5433 5431 5434 5424 5418 5412 5408 5406 5404 5402 5401 5401 5401 5402 5403 5405 5408 5411 5414 5418 5422 5425 5429 5433 5436 5439 5442 5445 5448 5452 5455 5459
5430 5426 5417 5407 5404 5399 5400 5399 5395 5399 5405 5419 5430 5426 5434 5422 5416 5410 5403 5398 5395 5392 5391 5390 5389 5390 5391 5393 5395 5398 5401 5405 5408 5412 5415 5419 5422 5425 5428 5431 5434 5438 5442 5445
5412 5411 5407 5399 5395 5399 5387 5382 5385 5391 5389 5403 5415 5429 5421 5412 5406 5401 5396 5389 5383 5381 5380 5378 5378 5378 5379 5380 5383 5385 5388 5392 5395 5398 5401 5404 5408 5410 5414 5417 5421 5425 5428 5431
5401 5404 5406 5399 5383 5377 5379 5381 5379 5386 5383 5377 5393 5411 5404 5394 5388 5383 5380 5376 5371 5368 5367 5365 5365 5366 5366 5368 5370 5372 5375 5378 5381 5384 5387 5391 5394 5397 5400 5404 5407 5411 5414 5418
5390 5389 5400 5402 5381 5362 5361 5363 5359 5360 5368 5372 5380 5400 5388 5377 5373 5367 5363 5362 5359 5356 5354 5353 5353 5354 5354 5355 5356 5359 5362 5365 5367 5370 5373 5377 5381 5383 5386 5390 5393 5396 5400 5404
5387 5382 5392 5408 5406 5379 5361 5354 5347 5350 5362 5371 5374 5387 5387 5377 5368 5363 5355 5350 5347 5345 5342 5341 5341 5342 5342 5342 5344 5345 5347 5350 5353 5357 5360 5364 5367 5370 5372 5375 5378 5382 5386 5390
5374 5377 5370 5373 5370 5363 5359 5355 5345 5341 5357 5361 5373 5369 5378 5370 5359 5353 5347 5341 5338 5335 5332 5330 5330 5330 5330 5330 5331 5332 5334 5336 5339 5343 5347 5350 5353 5355 5357 5360 5364 5368 5371 5375
5359 5361 5353 5355 5355 5349 5349 5354 5348 5344 5347 5349 5352 5359 5365 5353 5344 5340 5335 5331 5329 5327 5323 5320 5318 5318 5318 5318 5319 5319 5321 5323 5325 5329 5333 5336 5339 5341 5343 5347 5350 5354 5357 5361
5351 5345 5349 5363 5342 5338 5355 5360 5352 5347 5346 5345 5348 5358 5349 5341 5335 5331 5326 5321 5319 5317 5314 5311 5309 5306 5306 5306 5306 5307 5308 5310 5312 5315 5319 5323 5326 5328 5331 5333 5336 5339 5343 5347
5336 5336 5339 5346 5336 5347 5380 5350 5348 5343 5340 5334 5334 5335 5331 5326 5322 5317 5314 5311 5308 5306 5303 5300 5297 5295 5294 5293 5293 5294 5295 5297 5299 5302 5305 5309 5312 5315 5318 5320 5323 5326 5330 5333
5330 5330 5334 5334 5342 5357 5361 5339 5329 5326 5333 5328 5321 5319 5316 5309 5308 5315 5307 5300 5298 5296 5293 5289 5286 5283 5282 5280 5280 5281 5283 5284 5286 5289 5292 5295 5298 5302 5305 5308 5310 5313 5316 5320
5311 5315 5324 5323 5331 5346 5363 5327 5314 5318 5327 5325 5312 5309 5303 5296 5310 5318 5298 5291 5287 5284 5280 5277 5273 5271 5269 5269 5269 5269 5271 5272 5274 5277 5279 5281 5284 5287 5292 5295 5297 5300 5303 5306
5307 5308 5313 5318 5323 5340 5332 5308 5304 5319 5334 5310 5302 5298 5291 5289 5294 5290 5282 5277 5274 5272 5269 5266 5262 5260 5259 5258 5258 5259 5261 5262 5263 5264 5266 5269 5272 5274 5278 5281 5284 5287 5290 5294
5317 5313 5307 5310 5312 5331 5305 5298 5306 5316 5299 5292 5288 5284 5279 5277 5273 5270 5267 5264 5262 5260 5258 5255 5253 5251 5250 5249 5248 5250 5251 5252 5251 5253 5255 5258 5260 5262 5265 5268 5271 5274 5277 5281
5310 5314 5318 5314 5322 5308 5290 5291 5287 5282 5281 5279 5276 5270 5266 5263 5261 5258 5255 5253 5250 5249 5247 5245 5243 5242 5241 5240 5239 5241 5242 5241 5241 5242 5244 5246 5249 5251 5253 5256 5259 5262 5265 5269
5296 5282 5289 5290 5295 5288 5279 5274 5271 5268 5266 5264 5260 5257 5254 5252 5250 5246 5244 5242 5240 5238 5236 5235 5233 5233 5232 5231 5230 5231 5231 5231 5231 5233 5234 5236 5238 5240 5242 5244 5247 5250 5253 5257
5293 5275 5277 5279 5281 5275 5273 5268 5264 5259 5254 5251 5248 5246 5243 5241 5240 5236 5234 5232 5230 5228 5226 5225 5224 5223 5223 5222 5221 5221 5221 5221 5222 5223 5225 5226 5228 5229 5231 5233 5235 5238 5242 5245
5274 5269 5276 5288 5277 5269 5270 5261 5254 5250 5247 5243 5239 5237 5234 5231 5229 5227 5224 5222 5220 5218 5216 5215 5214 5213 5213 5212 5212 5212 5211 5211 5212 5214 5215 5216 5217 5218 5220 5222 5224 5227 5230 5233